STARLINK-3849, 52343

Orbit data source: Space-Track

STARLINK-3849, 52343 is a payload satellite owned by SpaceX/Seattle (US) in LEO that was launched on Fri, 29 Apr 2022 UTC via an FALCON 9 launch vehicle from the Air Force Eastern Test Range (AFETR). Payload-class satellites include a variety of spacecraft equipped with specific instruments for various scientific and technological missions. These include communications satellites like Starlink; space stations such as the ISS; scientific satellites like the Hubble; Earth observation satellites from companies like Planet Labs, Umbra, and HawkEye 360; GPS; miniature CubeSats for education and research; and military/defense satellites.

Loading next visibility...
Identifier
52343, 2022-045N
Orbit
LEO
Country
Flag of USUS
Related business
Manufacturer
SpaceX/Seattle
Mission
Operational Commercial Communications
Bus & Motor
STARLINK, Unknown motor
Mass
297 kg wet, ~275 kg dry
Launch date (UTC)
2022-04-29 (4 years ago)
Launch vehicle
FALCON 9
Launch site
Air Force Eastern Test Range (AFETR)
Object type
Payload
Rocket body
Debris
Shape & HBR
Box + 1 Pan, 10.1 m
Radar Cross Section
11.087 m², Large (>1 m²)

Expand to show TLE details & history
Last TLE update: 17 hours ago

TLE from 17 hours ago
0 STARLINK-3849
1 52343U 22045N   25349.93479706  .00000437  00000-0  45546-4 0  9990
2 52343  53.2160 225.1107 0001428  90.6705 269.4450 15.08840447203002
Epoch: 2025-12-15T22:26Z
TLE epoch observation values (Epoch: 2025-12-15T22:26:06.465Z)
Latitude
-0.00006°
Longitude
163.75748°
Altitude
540.649 km
Speed
7.593 km/s
True Right ascension
15h 00m 26s
True Declination
0° 00' 00"
Sunlit
Object was in daylight at epoch
Visualization orbit readout
Latitude
Unknown
Longitude
Unknown
Altitude
Unknown
Speed
Unknown
Apparent Right ascension
Unknown
Apparent Declination
Unknown
Sunlit
N/A
Visualization observer readout
Local Sidereal Time
13:41:29
Azimuth
Unknown
Elevation
Unknown
Doppler factor
Unknown
Orbital elements
Apogee altitude
540.975 km
Perigee altitude
538.999 km
Semi-major axis
6,918.124 km
Eccentricity
0.00014
Inclination
53.216°
RAAN
225.1107°
Arg. of periapsis
90.6705°
True anomaly
269.42864°
Mean anomaly
269.445°
Eccentric anomaly
269.43682°
Mean motion
3.7719 °/min
Orbital period
95.44 mins
BSTAR
0.000045546
Loading maneuver chart data...
Computing Atmospheric mass density...
Loading historical data...
Loading historical data...
Loading historical data...
Loading historical data...
Loading historical data...
Loading historical data...
Loading historical data...

Documentation

Showing up to 5 results
|